Regional Weather Roundup
Issued by NWS

Home | Current Version | Previous Version | Text Only | Print | Product List | Glossary Off
Versions: 1 2 3 4 5 6 7 8 9 10 11 12 13 14 15 16 17 18 19 20 21 22 23 24 25 26 27 28 29 30 31 32 33 34 35 36 37 38 39 40 41 42 43 44 45 46 47 48 49 50

000
ASUS45 KBOU 010107
RWRCO

WEATHER ROUNDUP FOR COLORADO
NATIONAL WEATHER SERVICE DENVER/BOULDER CO
600 PM MST SAT FEB 28 2015

NOTE: "FAIR" INDICATES FEW OR NO CLOUDS BELOW 12000 FEET WITH NO
SIGNIFICANT WEATHER AND/OR OBSTRUCTIONS TO VISIBILITY.

COZ001>005-013-030-031-010200-
...NORTHWEST COLORADO...

CITY           SKY/WX    TMP DP  RH WIND       PRES   REMARKS
CRAIG          CLOUDY    33  24  69 SW9       29.76R WCI  25
HAYDEN         CLOUDY    34  12  40 S5        29.75R WCI  30
MEEKER         LGT SNOW  31  28  89 CALM      29.77R FOG
MOUNT WERNER   NOT AVBL
STEAMBOAT SPGS CLOUDY    32  17  54 CALM      29.75R
WALDEN         CLOUDY    21  12  68 N6        29.75R WCI  14
$$

COZ006>008-011-010200-
...WEST CENTRAL VALLEYS...

CITY           SKY/WX    TMP DP  RH WIND       PRES   REMARKS
GRAND JUNCTION CLOUDY    40  28  62 S9        29.77R
MONTROSE       CLOUDY    34  29  82 SE8       29.83R WCI  27
EAGLE          NOT AVBL
RIFLE          CLOUDY    37  23  56 W6        29.77R
DELTA          LGT RAIN  36  33  88 NW6       29.82R
NUCLA          CLOUDY    36  30  80 SE8       29.85R
$$

COZ017>023-064>068-010200-
...SOUTHWEST COLORADO...

CITY           SKY/WX    TMP DP  RH WIND       PRES   REMARKS
DURANGO        LGT SNOW  30  28  92 E5        29.88R FOG     WCI  25
CORTEZ         PTCLDY    32  32 100 CALM      29.84R FOG
PAGOSA SPRINGS LGT SNOW  30  29  99 S3        29.87R
TELLURIDE      LGT SNOW  29  24  81 W6G18     29.83R WCI  23
WOLF CREEK PAS SNOW      16  16 100 SW36G56   29.82R VSB 1/4 WCI  -6
$$

COZ009-010-012-014-032>034-037-058>063-010200-
...CENTRAL COLORADO...

CITY           SKY/WX    TMP DP  RH WIND       PRES   REMARKS
ASPEN          LGT SNOW  28  25  88 SE5       29.76R FOG     WCI  23
BUENA VISTA    LGT SNOW  26  23  88 SE6       29.80S VSB 3/4 WCI  20
COPPER MTN     SNOW      19  12  73 SW14G36   29.76R VSB 1/2 WCI   6
BERTHOUD PASS  LGT SNOW   9   3  78 S5        29.76R WCI   0
COTTONWOOD PAS SNOW      25  21  86 CALM      29.78R VSB 1/2
GUNNISON       CLOUDY    25  21  86 CALM      29.84R
KREMMLING      PTCLDY    27  21  80 E3        29.78R
LEADVILLE      LGT SNOW  18  16  92 SW6       29.74F VSB 3/4 WCI  10
SALIDA         CLOUDY    29  20  69 SE10G18   29.89R WCI  20
SUNLIGHT       SNOW      23  21  93 CALM        N/A  VSB 1/2
WILKERSON PASS CLOUDY    18  14  86 CALM      29.81R
$$

COZ069>075-010200-
...SAN LUIS VALLEY/SANGRE DE CRISTO MOUNTAINS...

CITY           SKY/WX    TMP DP  RH WIND       PRES   REMARKS
ALAMOSA        CLOUDY    26  22  84 SW6       29.84R WCI  19
LA VETA PASS   SNOW      21  19  93 S8G17     29.81R VSB 1/2 WCI  12
SAGUACHE       MOCLDY    25  21  86 CALM      29.85R
$$

COZ035-036-038>040-010200-
...NORTHERN COLORADO FRONT RANGE...

CITY           SKY/WX    TMP DP  RH WIND       PRES   REMARKS
DENVER INTL AP CLOUDY    17  10  74 CALM      29.95S
DMNS CITY PARK   N/A     19  11  69 E2        29.98R
AURORA         MOCLDY    15   9  78 E2        29.96S
FRONT RANGE AP NOT AVBL
ERIE MUNI ARPT CLOUDY    23  15  70 CALM      29.98S
BOULDER MUN AP CLOUDY    23  14  68 CALM      29.96S
CENTENNIAL     MOCLDY    18  11  74 N6        29.94R WCI  10
BROOMFIELD     MOCLDY    21  16  79 CALM      29.96R
FORT COLLINS   CLOUDY    23  16  74 S5        29.99S WCI  17
LONGMONT       CLOUDY    26  16  66 S3        30.00S
$$

COZ041-046-047-076>085-087-088-010200-
...PIKES PEAK/PALMER DIVIDE AND SOUTHERN FOOTHILLS...

CITY           SKY/WX    TMP DP  RH WIND       PRES   REMARKS
COLO. SPRINGS  PTCLDY    15  11  83 SE5       29.94R FOG     WCI   8
A. F. ACADEMY  MOCLDY    18  12  79 S9        29.91R WCI   6
ELLICOTT       NOT AVBL
FALCON         LGT SNOW  15  13  94 CALM      29.91R
FORT CARSON    CLOUDY    15  11  83 SE6       29.93R WCI   7
LIMON          CLOUDY    14   9  80 CALM      29.97R
MONUMENT HILL  CLEAR     12   5  73 CALM      29.88R
TRINIDAD       MOCLDY    19  13  77 N5        29.93R WCI  12
$$

COZ042>045-048>051-090-091-010200-
...NORTHEAST COLORADO...

CITY           SKY/WX    TMP DP  RH WIND       PRES   REMARKS
GREELEY ARPT   MOCLDY    25  10  54 E8        29.98R WCI  16
AKRON          CLOUDY    21  14  74 E6        30.00S WCI  13
BURLINGTON     CLOUDY    18  11  74 SW7       30.05R WCI   9
WRAY           CLOUDY    22  13  68 S3        30.10R
STERLING       PTCLDY    27  18  69 S8        30.03R WCI  18
HOLYOKE        NOT AVBL
FORT MORGAN    MOCLDY    22  14  71 NE5       30.02R WCI  16
$$

COZ086-089-092>099-010200-
...SOUTHEAST COLORADO...

CITY           SKY/WX    TMP DP  RH WIND       PRES   REMARKS
PUEBLO         CLOUDY    19  12  74 S3        30.01R
LA JUNTA       PTCLDY    21  14  74 N5        30.04R WCI  15
LAMAR          CLOUDY    24  17  74 S3        30.04R
SPRINGFIELD      N/A     17  13  84 N7        30.01R WCI   8
$$



USA.gov is the U.S. government's official web portal to all federal, state and local government web resources and services.